This is the latest recevied weather packets stored in our database for station/object K4PAR-1. If no packets are shown the sender has not sent any weather packets the latest 10 day(s).
| Time | Temp. | Humidity | Pressure | Rain* | Wind** | Luminosity | Snow |
|---|---|---|---|---|---|---|---|
| 1788190523 | 31.67° C | - | - | 0 mm | 0 m/s | - | - |
| 1788190314 | 30° C | - | - | 0 mm | 0.89 m/s, 186° | - | - |
| 1788190298 | 30° C | - | - | 0 mm | 0.89 m/s, 186° | - | - |
| 1788190038 | 30° C | - | - | 0 mm | 0 m/s | - | - |
| 1788189796 | 28.33° C | - | - | 0 mm | 1.34 m/s, 232° | - | - |
| 1788189553 | 28.33° C | - | - | 0 mm | 0.89 m/s, 201° | - | - |
| 1788189311 | 28.89° C | - | - | 0 mm | 2.68 m/s, 276° | - | - |
| 1788188826 | 28.33° C | - | - | 0 mm | 0.45 m/s, 253° | - | - |
| 1788188627 | 27.78° C | - | - | 0 mm | 2.24 m/s, 229° | - | - |
| 1788188583 | 27.78° C | - | - | 0 mm | 2.24 m/s, 229° | - | - |
| 1788188381 | 29.44° C | - | - | 0 mm | 0.45 m/s, 270° | - | - |
| 1788188341 | 29.44° C | - | - | 0 mm | 0.45 m/s, 270° | - | - |
| 1788188130 | 29.44° C | - | - | 0 mm | 0 m/s | - | - |
| 1788188098 | 29.44° C | - | - | 0 mm | 0 m/s | - | - |
| 1788187913 | 28.33° C | - | - | 0 mm | 1.79 m/s, 200° | - | - |
| 1788187861 | 28.33° C | - | - | 0 mm | 1.79 m/s, 200° | - | - |
| 1788187683 | 28.33° C | - | - | 0 mm | 1.34 m/s, 253° | - | - |
| 1788187613 | 28.33° C | - | - | 0 mm | 1.34 m/s, 253° | - | - |
| 1788187437 | 27.78° C | - | - | 0 mm | 2.68 m/s, 236° | - | - |
| 1788187371 | 27.78° C | - | - | 0 mm | 2.68 m/s, 236° | - | - |
| 1788187128 | 27.78° C | - | - | 0 mm | 1.79 m/s, 218° | - | - |
| 1788186886 | 28.33° C | - | - | 0 mm | 1.34 m/s, 177° | - | - |
| 1788186455 | 30.56° C | - | - | 0 mm | 0 m/s | - | - |
| 1788186401 | 30.56° C | - | - | 0 mm | 0 m/s | - | - |
| 1788185916 | 28.33° C | - | - | 0 mm | 0 m/s | - | - |
* Rain latest hour (hover to see other rain measurements)
** Current wind speed in m/s (hover to see current wind gust speed)